Total_Precipitation_Accumulation
0.01 0.08 0.39 2.34 3.17 2.29 3.10 1.81 0.91 0.77 0.24 0.15 0.16 0.20 0.53 1.08 0.68 0.58 0.23 0.18 0.18 0.26 0.65 1.42 1.62 0.80 0.45 0.36 0.34 0.28 0.18 0.10 0.17 0.40 0.25 0.20 0.33 0.36 0.31 0.23 0.26 0.22 0.21 0.22 0.15 0.15 0.16 0.24 0.28
0.01 0.17 1.63 3.85 2.78 3.64 2.51 1.47 1.19 0.80 0.30 0.10 0.09 0.16 0.09 0.06 0.15 0.11 0.24 0.22 0.08 0.08 0.39 0.84 1.07 0.71 0.31 0.21 0.21 0.21 0.17 0.08 0.24 0.34 0.34 0.41 0.40 0.40 0.33 0.27 0.24 0.20 0.16 0.16 0.10 0.11 0.12 0.20 0.34
0.01 0.47 4.59 5.94 4.64 3.60 1.88 0.76 0.54 0.39 0.14 0.12 0.20 0.23 0.10 0.08 0.02 0.04 0.02 0.02 0.06 0.12 0.25 0.51 0.57 0.51 0.30 0.16 0.19 0.20 0.22 0.18 0.29 0.31 0.54 0.54 0.54 0.46 0.42 0.33 0.35 0.25 0.17 0.15 0.14 0.15 0.10 0.20 0.32
0.50 3.71 3.99 3.84 3.52 1.90 1.05 0.55 0.38 0.32 0.26 0.30 0.41 0.19 0.15 0.08 0.01 0.01 0.01 0.04 0.07 0.04 0.11 0.28 0.38 0.40 0.25 0.19 0.21 0.16 0.19 0.13 0.26 0.27 0.35 0.48 0.49 0.37 0.25 0.44 0.23 0.18 0.18 0.07 0.09 0.10 0.16 0.30 0.37
1.59 4.50 3.36 3.88 3.43 1.13 0.76 0.67 0.40 0.28 0.38 0.28 0.16 0.16 0.16 0.06 0.02 0.01 0.01 0.04 0.05 0.03 0.09 0.13 0.50 0.48 0.26 0.23 0.16 0.23 0.18 0.11 0.21 0.25 0.25 0.35 0.36 0.41 0.32 0.30 0.25 0.13 0.19 0.15 0.08 0.26 0.45 0.24 0.26
1.69 3.84 3.23 2.49 2.28 1.48 2.00 1.57 0.87 0.67 0.62 0.36 0.16 0.03 0.14 0.06 0.00 0.01 0.01 0.04 0.03 0.01 0.03 0.05 0.29 0.52 0.39 0.46 0.19 0.26 0.19 0.09 0.16 0.28 0.30 0.28 0.24 0.22 0.21 0.19 0.14 0.04 0.05 0.13 0.20 0.29 0.35 0.31 0.26
2.01 4.08 2.23 2.17 1.68 2.60 2.20 1.65 1.22 0.75 0.39 0.21 0.10 0.06 0.14 0.07 0.01 0.01 0.01 0.03 0.03 0.02 0.04 0.02 0.08 0.24 0.27 0.32 0.29 0.31 0.18 0.17 0.28 0.33 0.19 0.22 0.23 0.19 0.19 0.15 0.13 0.06 0.07 0.14 0.12 0.18 0.24 0.29 0.32
1.76 3.30 2.42 2.20 2.56 3.75 1.38 1.50 1.27 0.76 0.57 0.22 0.06 0.03 0.07 0.03 0.01 0.01 0.02 0.04 0.04 0.02 0.03 0.03 0.05 0.08 0.13 0.14 0.34 0.47 0.30 0.17 0.13 0.11 0.18 0.37 0.24 0.28 0.34 0.44 0.36 0.26 0.20 0.16 0.20 0.29 0.31 0.34 0.40
0.74 2.26 2.21 1.52 1.89 2.94 1.89 2.57 1.75 1.12 0.45 0.27 0.21 0.11 0.00 0.00 0.02 0.03 0.07 0.14 0.04 0.04 0.03 0.01 0.02 0.02 0.14 0.05 0.17 0.27 0.21 0.21 0.32 0.25 0.47 1.01 0.74 0.75 1.09 0.99 0.56 0.33 0.31 0.33 0.37 0.44 0.42 0.41 0.48
0.53 1.33 1.30 0.69 0.84 1.98 2.00 1.98 1.70 1.34 0.55 0.77 0.34 0.05 0.00 0.00 0.02 0.01 0.03 0.05 0.01 0.03 0.02 0.03 0.06 0.01 0.02 0.04 0.17 0.24 0.26 0.24 0.43 0.32 0.75 1.04 0.98 0.54 0.48 0.72 0.60 0.53 0.48 0.65 0.73 0.72 0.83 0.92 0.86
0.16 1.31 0.95 0.82 0.95 0.54 0.59 0.81 1.03 2.27 1.30 0.37 0.17 0.03 0.00 0.00 0.01 0.00 0.00 0.00 0.00 0.00 0.05 0.04 0.04 0.04 0.09 0.28 0.42 0.25 0.05 0.01 0.17 0.19 0.56 0.43 0.39 0.28 0.41 0.46 0.52 0.43 0.62 0.84 0.42 1.05 0.79 0.55 0.57
0.08 0.31 0.32 0.58 0.69 0.44 0.90 0.77 0.93 1.34 1.67 0.30 0.17 0.06 0.00 0.00 0.01 0.01 0.00 0.00 0.00 0.03 0.03 0.04 0.02 0.21 0.30 0.38 0.57 0.21 0.09 0.04 0.02 0.09 0.22 0.35 0.49 0.51 0.96 0.59 0.89 1.01 0.78 1.19 1.06 0.78 0.37 0.29 0.36
0.02 0.05 0.11 0.20 0.29 0.45 0.74 1.08 1.50 1.15 0.55 0.47 0.23 0.06 0.00 0.00 0.00 0.00 0.00 0.00 0.00 0.04 0.02 0.07 0.07 0.18 0.96 0.92 0.23 0.17 0.23 0.10 0.03 0.08 0.17 0.60 0.71 0.55 0.58 0.83 0.69 0.60 0.70 1.28 1.00 0.75 0.51 0.21 0.14
0.00 0.03 0.31 0.18 0.24 0.44 0.80 0.81 1.18 0.95 0.44 0.41 0.13 0.05 0.00 0.00 0.00 0.00 0.00 0.00 0.00 0.00 0.00 0.03 0.06 0.10 0.58 0.26 0.21 0.25 0.72 0.12 0.04 0.06 0.14 0.24 0.59 0.55 1.18 1.39 0.46 0.74 0.54 0.89 0.87 0.80 0.59 0.19 0.07
0.00 0.02 0.24 0.24 0.28 0.42 0.74 0.95 0.90 0.79 0.45 0.34 0.15 0.05 0.00 0.00 0.00 0.00 0.00 0.00 0.00 0.00 0.00 0.01 0.03 0.07 0.17 0.32 0.20 0.43 0.76 0.26 0.14 0.37 0.21 0.35 0.62 0.66 1.22 0.83 0.72 0.41 0.29 0.35 0.37 0.47 0.41 0.20 0.07
0.00 0.02 0.24 0.41 0.28 0.29 0.66 0.79 1.35 0.69 0.85 0.67 0.15 0.04 0.00 0.00 0.00 0.00 0.00 0.00 0.00 0.00 0.01 0.01 0.01 0.01 0.10 0.21 0.25 0.26 0.91 0.80 0.65 0.44 0.30 0.42 0.64 0.93 0.81 0.79 0.72 0.46 0.43 0.43 0.54 0.37 0.26 0.06 0.01
0.03 0.05 0.05 0.29 0.17 0.21 0.63 1.09 1.32 1.09 0.67 1.04 0.16 0.12 0.02 0.00 0.01 0.00 0.00 0.00 0.00 0.00 0.00 0.00 0.00 0.00 0.08 0.18 0.24 0.24 0.44 0.48 0.49 0.52 0.45 0.25 0.43 0.59 0.75 0.83 0.97 0.57 0.44 0.41 0.30 0.21 0.16 0.10 0.04
0.01 0.00 0.01 0.02 0.14 0.28 0.46 0.77 0.77 1.25 1.02 1.01 0.48 0.13 0.05 0.01 0.02 0.00 0.00 0.00 0.00 0.00 0.00 0.00 0.00 0.01 0.07 0.24 0.46 0.45 0.46 0.49 0.50 0.71 0.71 0.42 0.59 0.55 0.91 0.80 0.54 0.53 0.42 0.29 0.25 0.14 0.05 0.03 0.03
0.00 0.00 0.04 0.16 0.25 0.45 0.55 0.23 0.47 1.16 1.24 1.01 0.47 0.15 0.08 0.02 0.03 0.01 0.00 0.00 0.00 0.00 0.00 0.00 0.01 0.03 0.06 0.21 0.22 0.18 0.32 0.48 0.44 0.46 0.41 0.37 0.58 0.56 0.73 0.42 0.39 0.38 0.37 0.30 0.24 0.10 0.06 0.02 0.06
0.00 0.00 0.04 0.38 0.65 0.65 0.68 0.23 0.47 1.18 1.23 0.97 0.63 0.41 0.15 0.06 0.03 0.03 0.00 0.00 0.00 0.00 0.00 0.00 0.00 0.01 0.04 0.11 0.14 0.23 0.32 0.32 0.19 0.16 0.12 0.15 0.24 0.29 0.31 0.41 0.17 0.28 0.30 0.36 0.19 0.12 0.10 0.05 0.08
0.00 0.00 0.00 0.24 0.52 0.58 0.52 0.47 0.39 0.88 1.07 1.05 0.81 0.40 0.16 0.11 0.04 0.00 0.00 0.00 0.00 0.00 0.00 0.00 0.00 0.01 0.05 0.08 0.12 0.39 0.45 0.43 0.28 0.24 0.21 0.16 0.17 0.19 0.28 0.38 0.32 0.26 0.25 0.35 0.32 0.16 0.17 0.09 0.06
0.00 0.00 0.00 0.13 0.30 0.39 0.25 0.19 0.24 0.24 0.89 2.28 1.14 1.24 0.42 0.13 0.09 0.02 0.01 0.00 0.00 0.00 0.00 0.00 0.00 0.00 0.01 0.06 0.06 0.12 0.16 0.31 0.24 0.12 0.09 0.09 0.14 0.23 0.21 0.23 0.19 0.18 0.18 0.35 0.33 0.14 0.16 0.14 0.07
0.00 0.00 0.00 0.02 0.10 0.02 0.05 0.06 0.21 0.26 1.03 2.11 1.50 0.81 0.60 0.13 0.09 0.03 0.00 0.01 0.02 0.00 0.00 0.00 0.00 0.01 0.02 0.05 0.11 0.14 0.16 0.64 0.14 0.16 0.16 0.14 0.15 0.13 0.11 0.13 0.16 0.20 0.22 0.23 0.23 0.21 0.18 0.16 0.14
0.00 0.00 0.03 0.05 0.10 0.08 0.01 0.04 0.12 0.44 0.76 0.97 0.68 0.49 0.50 0.26 0.11 0.06 0.06 0.06 0.01 0.00 0.00 0.00 0.00 0.00 0.02 0.02 0.05 0.20 0.15 0.15 0.24 0.23 0.23 0.09 0.07 0.05 0.14 0.05 0.09 0.15 0.24 0.17 0.22 0.19 0.14 0.19 0.18
0.00 0.00 0.03 0.10 0.10 0.08 0.02 0.14 0.17 0.13 0.42 1.31 1.06 0.83 0.69 0.58 0.20 0.09 0.05 0.01 0.00 0.00 0.00 0.00 0.00 0.00 0.00 0.00 0.02 0.07 0.14 0.21 0.63 0.22 0.07 0.17 0.03 0.02 0.08 0.10 0.11 0.11 0.12 0.13 0.13 0.17 0.12 0.10 0.10
0.00 0.00 0.00 0.00 0.00 0.00 0.04 0.20 0.10 0.05 0.02 0.27 1.12 1.14 1.02 1.03 0.68 0.21 0.06 0.07 0.04 0.00 0.00 0.00 0.00 0.00 0.00 0.00 0.01 0.04 0.07 0.07 0.11 0.05 0.03 0.08 0.09 0.08 0.07 0.13 0.15 0.10 0.08 0.03 0.08 0.08 0.07 0.13 0.12
0.00 0.00 0.00 0.00 0.00 0.00 0.14 0.10 0.09 0.04 0.02 0.03 0.20 0.81 1.33 1.52 1.54 0.79 0.50 0.19 0.13 0.05 0.01 0.01 0.00 0.00 0.00 0.01 0.03 0.10 0.08 0.06 0.07 0.11 0.02 0.05 0.17 0.26 0.39 0.12 0.12 0.09 0.09 0.07 0.08 0.08 0.14 0.14 0.13
0.00 0.00 0.00 0.00 0.00 0.01 0.22 0.22 0.17 0.09 0.03 0.03 0.02 0.10 0.57 1.04 1.81 1.10 1.30 1.13 0.49 0.49 0.18 0.21 0.28 0.17 0.16 0.10 0.09 0.14 0.09 0.08 0.12 0.13 0.11 0.16 0.15 0.50 1.10 0.15 0.05 0.08 0.07 0.07 0.07 0.04 0.05 0.12 0.09
0.00 0.00 0.00 0.00 0.00 0.00 0.15 0.32 0.26 0.21 0.08 0.05 0.02 0.02 0.12 0.41 1.09 1.13 1.33 1.68 0.86 1.36 1.49 1.13 0.82 0.41 0.29 0.25 0.23 0.19 0.17 0.12 0.08 0.12 0.31 0.21 0.13 0.12 0.27 0.31 0.06 0.07 0.05 0.05 0.16 0.14 0.10 0.12 0.06
0.00 0.00 0.00 0.00 0.00 0.00 0.03 0.22 0.27 0.31 0.11 0.05 0.05 0.02 0.03 0.10 0.54 1.36 1.64 1.51 1.32 1.64 1.90 2.61 2.12 1.34 0.69 0.44 0.36 0.25 0.18 0.14 0.12 0.07 0.11 0.13 0.17 0.12 0.12 0.09 0.06 0.06 0.06 0.05 0.09 0.08 0.07 0.13 0.08